Temperature
17 17 16 16 16 16 16 16 16 16 16 16 16 16 16 17 17 17 17 17 17 17 17 17 17 17 18 18 18 18 18 18 18 17 17 17 17 17 17 17 17 17 16
16 16 16 16 16 15 15 16 16 16 16 16 16 16 16 16 16 17 17 17 17 17 17 17 17 17 17 17 18 18 18 18 18 17 17 17 17 17 17 17 17 17 17
16 16 16 15 15 15 15 15 15 15 15 15 16 16 16 16 16 16 16 16 17 17 17 17 17 17 17 17 17 17 18 18 18 18 17 17 17 17 17 17 17 17 17
16 15 15 15 14 14 14 15 15 15 15 15 15 15 16 16 16 16 16 16 16 16 16 16 16 16 17 17 17 17 17 17 18 18 17 17 17 17 17 17 17 17 17
15 15 15 14 14 14 14 14 14 14 14 15 15 15 15 15 16 16 16 16 16 16 16 16 16 16 16 16 17 17 17 17 17 17 17 17 17 17 17 17 17 17 17
15 15 14 14 14 14 14 14 14 14 14 14 14 15 15 15 15 16 16 16 16 16 16 16 16 16 16 16 16 16 17 17 17 17 17 17 17 17 17 17 17 17 17
15 14 14 14 14 13 13 13 13 13 14 14 14 14 15 15 15 16 16 16 16 16 16 16 16 16 16 16 16 16 16 16 17 17 17 17 17 17 17 17 17 17 17
14 14 14 13 13 13 13 13 13 13 13 13 13 14 14 15 15 15 15 16 16 16 16 16 16 16 16 16 16 16 16 16 16 17 17 17 17 17 17 17 17 17 17
14 14 14 13 13 13 13 13 12 13 13 13 13 13 13 13 14 15 15 15 15 15 15 15 15 16 16 16 16 16 16 16 16 16 16 17 17 17 17 17 17 17 17
14 13 13 13 13 13 13 12 12 12 12 12 12 12 12 12 13 13 15 15 15 15 15 15 15 15 15 15 16 16 16 16 16 16 16 16 16 16 17 17 17 17 17
14 13 13 13 13 13 12 12 12 12 12 12 12 12 12 12 12 12 13 14 14 14 14 15 15 15 15 15 15 15 15 15 16 16 16 16 16 16 16 16 16 16 17
14 13 13 13 13 13 12 12 12 12 12 11 11 12 12 12 12 12 12 12 13 14 14 14 14 15 15 15 15 15 15 15 15 15 15 16 16 16 16 16 16 16 16
13 13 13 13 13 12 12 12 12 12 11 11 11 11 11 11 11 11 11 12 12 13 13 14 14 14 14 14 14 15 15 15 15 15 15 15 15 15 16 16 16 16 16
13 13 13 12 12 12 12 12 12 12 11 11 11 11 11 11 11 11 11 11 11 12 12 13 13 13 13 14 14 14 14 14 14 15 15 15 15 15 15 15 16 16 16
13 13 12 12 12 12 12 12 11 11 11 11 11 11 11 11 11 11 11 11 10 10 11 12 12 13 13 13 13 13 13 13 14 14 14 14 15 15 15 15 15 15 15
13 13 13 12 12 12 12 11 11 11 11 11 11 11 11 11 11 10 10 10 10 10 10 11 11 12 12 12 12 12 13 13 13 13 14 14 14 14 15 15 15 15 15
13 13 13 12 12 12 12 11 11 11 11 11 11 11 11 11 10 10 10 10 10 10 10 11 11 11 11 12 12 12 12 13 13 13 13 13 14 14 14 14 14 15 15
13 13 13 12 12 12 11 11 11 11 11 11 11 11 11 10 10 10 10 10 10 10 10 10 11 11 11 11 11 12 12 12 12 13 13 13 13 13 14 14 14 14 14
14 13 13 12 12 12 11 11 11 11 11 11 11 10 10 10 10 10 10 10 10 10 10 10 10 10 11 11 11 11 11 12 12 12 12 13 13 13 13 13 14 14 14
14 13 13 13 12 12 12 11 11 11 11 11 10 10 10 10 10 10 10 10 10 10 9 9 10 10 10 10 10 11 11 11 12 12 12 12 12 13 13 13 13 14 14
14 14 13 13 12 12 12 11 11 11 11 10 10 10 10 10 10 10 10 10 9 9 9 9 9 10 10 10 10 10 10 11 11 11 12 12 12 12 12 13 13 13 14
14 14 13 13 13 12 12 11 11 11 11 10 10 10 10 10 10 10 9 9 9 9 9 9 9 9 10 10 10 10 10 10 10 11 11 11 12 12 12 12 13 13 13
15 14 14 13 13 13 12 12 11 11 11 11 10 10 10 10 10 10 9 9 9 9 9 9 9 9 9 9 9 9 9 9 10 10 10 11 11 12 12 12 13 13 13
15 15 14 14 13 13 12 12 11 11 11 11 10 10 10 10 10 9 9 9 9 9 9 9 9 9 9 9 9 9 9 9 9 10 10 10 11 11 12 12 12 13 13
15 15 14 14 14 13 13 12 11 11 11 11 11 10 10 10 10 9 9 9 9 9 9 9 9 9 9 9 9 8 8 8 9 10 10 10 11 11 12 12 12 12 13
15 15 15 14 14 13 13 12 12 11 11 11 11 11 10 10 10 9 9 9 9 9 9 9 9 8 8 8 8 8 8 8 8 9 9 9 10 10 11 12 12 12 12
Wind_Speed
3 3 3 4 4 3 2 2 1 2 2 2 3 3 4 5 6 6 6 10 15 18 20 20 20 21 21 21 21 20 20 19 18 18 18 18 18 18 17 16 16 15 15
5 3 3 3 4 4 2 1 1 1 1 1 2 2 3 3 5 6 8 11 14 18 20 21 21 21 21 22 22 22 21 21 20 20 19 19 19 19 18 18 17 17 16
7 5 3 3 4 6 5 4 3 3 2 2 2 3 2 3 4 6 8 10 12 17 20 22 23 23 22 22 23 23 23 23 22 22 21 21 21 21 20 20 19 18 18
8 6 3 3 5 7 5 2 3 3 3 3 3 4 3 3 5 7 8 9 11 12 17 21 23 24 23 23 24 24 24 25 24 24 23 23 22 22 22 21 21 20 20
8 7 4 4 6 5 4 3 3 2 3 4 4 3 4 4 4 6 5 8 10 12 14 18 22 24 24 24 24 25 25 25 25 25 25 24 24 24 23 23 22 22 21
7 7 5 5 6 4 4 4 3 3 2 3 4 4 4 4 4 4 5 5 8 11 13 14 15 19 24 25 25 25 25 25 26 27 26 26 26 25 25 25 24 24 23
7 6 4 4 4 4 4 4 3 4 4 4 4 5 5 4 3 3 3 2 3 6 9 11 12 13 15 22 25 25 26 26 27 27 28 28 27 27 27 27 26 25 25
7 6 4 3 3 4 5 5 4 3 3 4 3 3 5 6 5 4 4 3 3 2 3 7 8 10 11 12 16 22 24 25 27 28 28 29 29 29 29 28 28 27 27
6 6 5 4 3 3 3 3 3 3 3 3 3 2 2 3 4 4 4 5 5 3 3 3 5 7 9 10 12 15 20 23 24 26 28 29 30 30 30 30 29 29 28
4 5 5 5 3 2 2 1 2 2 2 2 3 2 1 3 1 4 5 5 6 5 5 4 3 4 6 8 10 12 15 18 21 24 26 28 30 31 31 31 31 30 30
1 5 6 5 3 2 1 1 2 2 1 0 1 2 2 2 1 1 4 5 5 4 5 4 3 4 6 7 8 10 12 13 15 18 21 24 28 30 32 33 32 32 31
1 3 6 4 3 2 2 1 0 0 0 1 1 1 1 0 1 0 2 4 5 5 5 4 4 4 6 6 7 8 10 11 12 14 16 19 23 27 30 33 34 33 32
1 2 3 3 2 3 3 2 1 1 1 2 2 2 2 3 3 2 2 3 3 4 4 4 3 5 6 6 6 7 8 9 10 11 12 14 16 20 25 30 33 33 33
3 3 3 3 3 3 3 2 2 3 2 3 3 3 3 3 3 3 3 2 3 3 3 5 4 3 6 7 8 8 7 8 9 10 11 13 14 16 18 22 27 31 33
3 4 3 3 3 3 3 3 3 4 3 4 4 4 3 4 3 3 3 3 3 3 4 4 4 4 6 8 9 8 9 10 10 10 11 13 14 15 17 20 23 26 29
3 3 3 3 4 4 4 4 4 5 5 5 4 5 4 4 4 4 3 3 4 4 4 4 4 5 5 7 9 9 11 13 13 14 14 15 15 16 17 19 21 24 27
5 5 4 4 5 5 5 5 6 6 6 6 5 5 6 5 4 4 4 3 3 4 5 5 4 4 4 6 7 9 11 11 13 16 17 17 17 17 18 19 21 23 25
6 6 5 5 5 6 5 5 6 6 6 7 7 6 7 5 5 5 4 5 5 5 5 6 4 3 5 6 6 6 6 9 11 15 17 18 18 18 19 20 22 23 25
6 6 5 6 6 6 6 6 6 7 7 7 7 7 7 6 7 5 6 6 5 5 4 5 5 3 4 4 5 5 6 5 8 12 15 17 18 19 19 20 21 23 24
7 7 6 7 7 7 6 6 6 6 6 6 6 7 7 7 8 8 6 7 6 6 5 5 5 5 4 4 3 4 5 4 5 6 9 11 14 16 17 19 20 22 23
8 7 7 6 6 6 6 6 6 6 6 6 6 6 7 9 11 9 7 7 7 6 5 5 5 4 5 4 4 3 4 5 5 4 4 4 5 5 9 14 17 19 21
8 7 7 7 7 6 8 10 8 6 6 7 7 7 7 9 11 12 12 11 10 8 7 6 6 6 7 6 5 4 4 3 4 3 2 5 4 6 6 9 13 17 20
8 7 8 7 8 9 12 13 13 8 7 7 8 7 7 8 9 7 9 11 11 13 13 9 8 9 8 7 6 6 6 6 6 5 3 5 4 6 6 11 15 17 19
7 7 8 8 8 10 13 14 14 9 8 9 9 9 8 9 10 9 9 8 9 9 10 9 9 10 10 9 8 8 7 6 6 5 4 5 5 6 6 7 12 15 17
7 7 6 8 8 10 13 14 13 6 7 9 9 9 9 9 13 13 9 9 9 9 11 14 14 13 14 14 10 5 5 5 6 5 4 4 5 5 5 6 8 12 14
8 8 8 8 9 10 13 15 14 6 7 8 8 8 12 12 12 12 7 8 9 9 8 8 8 9 9 10 12 9 8 7 6 5 5 5 4 3 4 3 3 4 6
Wind_Direction
68 47 35 28 27 33 25 12 344 290 278 281 268 236 228 223 222 216 215 216 215 208 204 205 203 202 200 197 195 194 194 193 190 187 184 182 180 178 177 175 174 172 169
80 60 40 32 21 14 5 13 7 335 316 312 299 280 248 237 228 219 218 221 221 216 212 210 210 210 208 205 202 200 199 198 196 194 191 189 186 185 184 182 181 180 178
78 69 58 31 9 12 15 24 23 28 11 359 332 310 285 268 255 245 235 227 224 221 217 216 216 215 214 213 210 207 204 203 200 199 197 195 193 191 190 188 187 186 186
83 71 58 25 18 28 30 35 31 23 8 356 331 312 306 290 275 265 247 233 227 226 224 224 222 221 219 219 218 215 210 207 204 202 201 199 198 197 195 194 193 192 191
88 79 65 38 36 37 28 26 35 30 4 344 318 310 311 300 285 281 258 238 228 227 226 230 228 226 225 225 225 222 217 213 209 206 205 204 202 201 200 199 198 197 196
93 86 72 46 46 42 23 16 16 14 5 338 330 330 305 295 293 284 274 253 232 226 224 226 229 231 230 229 228 226 223 219 216 212 210 208 207 205 204 203 202 201 201
105 98 84 62 52 47 29 17 16 11 359 359 11 340 327 327 330 318 311 285 252 239 229 224 224 225 231 232 230 227 226 225 222 218 215 212 210 208 206 206 205 205 204
131 126 114 97 69 51 32 28 34 25 357 19 35 17 349 342 340 345 352 9 347 310 267 246 229 223 226 229 232 231 229 229 227 224 220 216 214 211 209 208 208 207 207
157 145 136 121 94 77 49 36 49 62 14 354 36 83 55 319 315 327 353 8 0 352 325 296 254 234 229 230 234 238 237 233 232 231 226 221 218 214 211 210 210 210 210
186 168 149 134 115 96 70 38 72 72 68 7 354 29 171 200 275 321 327 345 349 350 342 336 322 287 249 232 234 240 244 242 239 236 233 228 223 218 213 212 213 213 212
236 173 151 142 131 120 113 76 56 52 82 103 331 336 351 10 88 161 309 326 333 331 333 325 315 304 278 245 237 241 246 249 250 244 240 236 231 225 219 216 217 217 216
30 143 148 152 158 161 172 184 198 349 307 267 256 230 189 288 309 298 277 306 313 310 319 323 325 313 298 267 250 247 247 249 254 252 247 244 239 233 228 223 221 220 219
127 168 159 171 184 200 207 203 213 257 259 259 256 247 227 222 215 204 228 278 296 301 316 320 319 324 321 309 281 266 254 249 253 254 252 251 249 245 236 229 225 223 222
188 182 179 190 206 220 226 209 220 245 236 243 255 251 250 252 227 208 208 234 302 309 311 298 310 314 331 322 301 283 271 260 256 256 257 256 254 250 244 236 230 226 224
181 171 179 197 224 232 235 229 236 248 251 250 251 249 245 254 250 236 215 193 201 273 291 285 298 310 321 315 308 290 277 272 265 264 264 263 260 255 250 243 236 230 225
192 188 209 225 240 246 245 235 240 246 247 254 246 249 252 252 257 253 238 218 194 205 252 268 267 284 303 308 310 297 279 274 267 263 262 260 259 256 252 248 241 233 226
201 207 223 234 241 246 247 236 239 243 243 253 255 247 252 253 253 257 251 242 230 204 246 273 263 282 296 295 299 298 288 274 269 265 260 258 257 257 254 248 243 237 231
210 214 220 227 237 240 239 234 243 243 237 243 249 247 252 255 252 250 245 246 245 229 227 267 281 285 282 283 284 288 286 281 269 269 264 259 258 258 255 250 244 239 234
214 220 220 227 236 239 238 239 239 243 240 239 239 239 247 247 252 250 245 245 246 251 228 242 267 268 274 283 295 295 290 286 282 276 271 264 259 257 255 252 246 241 236
213 222 226 230 233 236 238 243 242 241 243 246 243 240 243 240 242 246 247 243 242 247 245 246 261 268 270 278 284 290 303 300 296 288 275 270 265 262 257 253 249 243 239
217 219 223 231 233 233 234 230 229 231 234 246 251 249 250 251 248 244 244 237 234 235 240 243 256 268 270 277 273 270 282 294 293 275 294 290 277 269 265 258 251 246 240
222 219 221 226 233 237 233 222 216 224 228 235 249 257 262 265 265 264 261 252 231 226 230 234 244 247 256 251 251 259 267 292 296 284 296 291 280 272 265 257 251 245 239
218 221 225 226 232 241 244 239 235 223 227 235 240 250 264 266 267 263 268 270 261 246 231 225 234 243 248 243 241 256 251 245 251 261 274 278 275 273 267 264 257 248 240
214 220 226 229 235 245 245 243 241 230 230 238 238 239 247 261 267 258 259 262 257 256 247 237 233 242 243 240 230 238 246 255 258 256 230 260 270 268 270 263 262 252 242
218 222 224 227 235 249 249 244 239 224 233 244 244 242 242 252 262 265 256 254 260 264 262 250 241 243 247 248 240 238 244 247 265 267 223 229 256 263 267 263 259 254 246
221 225 233 232 234 244 248 244 234 216 232 246 250 247 246 248 257 266 244 238 251 259 262 270 264 262 258 258 252 230 227 234 244 260 236 215 239 242 274 266 257 259 251
Height
1556 1555 1554 1554 1554 1553 1553 1553 1553 1554 1555 1555 1556 1556 1557 1558 1559 1560 1561 1562 1563 1565 1567 1568 1571 1573 1575 1576 1578 1579 1581 1582 1584 1586 1587 1589 1590 1592 1593 1595 1596 1597 1599
1554 1553 1552 1552 1552 1551 1551 1552 1552 1552 1552 1552 1553 1553 1554 1555 1555 1556 1558 1559 1560 1561 1563 1565 1568 1570 1572 1574 1576 1577 1579 1581 1582 1584 1586 1587 1589 1591 1592 1594 1595 1597 1598
1553 1552 1551 1551 1550 1550 1550 1550 1550 1550 1550 1550 1550 1551 1551 1552 1552 1553 1554 1555 1556 1558 1560 1562 1564 1566 1568 1570 1573 1575 1576 1578 1580 1582 1584 1586 1587 1589 1591 1593 1594 1596 1598
1552 1551 1550 1549 1549 1549 1548 1548 1548 1548 1548 1548 1548 1548 1548 1549 1549 1550 1550 1551 1553 1555 1556 1558 1560 1562 1564 1566 1568 1571 1573 1575 1577 1579 1581 1583 1585 1587 1589 1591 1593 1595 1596
1551 1550 1549 1548 1548 1547 1547 1546 1546 1546 1546 1546 1546 1546 1545 1546 1546 1547 1547 1548 1549 1551 1553 1554 1556 1558 1560 1562 1564 1566 1569 1571 1573 1575 1578 1580 1582 1585 1587 1589 1591 1593 1594
1551 1549 1548 1547 1547 1546 1546 1545 1545 1545 1544 1544 1543 1543 1543 1543 1543 1544 1544 1545 1546 1548 1549 1551 1552 1554 1555 1557 1559 1561 1564 1566 1569 1571 1574 1576 1579 1581 1584 1586 1588 1590 1592
1550 1549 1548 1547 1546 1545 1544 1544 1544 1543 1543 1542 1542 1542 1541 1541 1541 1541 1541 1542 1543 1545 1546 1547 1549 1550 1551 1553 1554 1556 1558 1561 1564 1566 1569 1572 1574 1577 1580 1582 1585 1587 1589
1549 1548 1547 1546 1545 1544 1544 1543 1543 1542 1542 1542 1541 1540 1540 1541 1540 1540 1540 1540 1541 1542 1543 1544 1545 1546 1547 1548 1550 1551 1553 1555 1558 1561 1564 1566 1570 1572 1575 1578 1581 1583 1585
1548 1548 1547 1546 1545 1544 1543 1543 1542 1542 1541 1541 1541 1541 1541 1540 1539 1539 1539 1539 1539 1539 1540 1541 1542 1542 1543 1544 1545 1547 1548 1550 1552 1555 1558 1560 1563 1567 1570 1573 1576 1578 1581
1547 1547 1546 1545 1544 1544 1543 1542 1541 1541 1540 1540 1540 1541 1541 1540 1540 1538 1538 1538 1538 1538 1538 1538 1539 1539 1540 1541 1541 1542 1543 1545 1547 1549 1551 1554 1557 1560 1563 1567 1570 1573 1576
1546 1545 1545 1544 1544 1543 1542 1541 1540 1539 1539 1539 1539 1539 1539 1539 1539 1538 1536 1536 1536 1536 1536 1536 1536 1537 1537 1537 1538 1538 1539 1540 1541 1543 1545 1547 1550 1553 1556 1560 1563 1567 1570
1544 1544 1543 1543 1542 1542 1541 1540 1539 1538 1538 1537 1537 1537 1537 1537 1537 1536 1535 1534 1533 1533 1533 1534 1534 1534 1534 1534 1534 1534 1535 1535 1536 1537 1539 1541 1543 1545 1548 1552 1556 1559 1563
1542 1542 1542 1542 1541 1540 1539 1538 1538 1537 1536 1535 1535 1535 1535 1535 1534 1534 1533 1532 1531 1530 1530 1531 1531 1531 1530 1530 1530 1530 1531 1531 1531 1532 1533 1534 1536 1538 1541 1544 1547 1551 1556
1540 1540 1540 1539 1539 1538 1537 1536 1536 1535 1534 1533 1533 1533 1532 1532 1532 1532 1531 1530 1528 1527 1527 1527 1527 1528 1527 1527 1527 1527 1527 1527 1527 1527 1528 1529 1530 1531 1533 1536 1539 1543 1547
1538 1538 1538 1537 1536 1536 1535 1534 1533 1532 1532 1531 1530 1530 1529 1529 1529 1528 1528 1528 1527 1524 1523 1523 1524 1524 1524 1523 1523 1523 1523 1523 1523 1523 1523 1523 1523 1524 1526 1529 1532 1535 1539
1536 1535 1535 1534 1534 1533 1532 1531 1530 1529 1529 1528 1527 1527 1526 1526 1525 1525 1524 1524 1524 1523 1520 1519 1519 1520 1519 1519 1519 1519 1519 1518 1518 1518 1518 1518 1518 1518 1520 1521 1523 1527 1530
1533 1532 1532 1531 1531 1530 1529 1528 1527 1526 1525 1525 1524 1523 1523 1522 1521 1521 1520 1520 1519 1519 1516 1515 1515 1515 1515 1515 1514 1514 1514 1514 1513 1513 1513 1513 1513 1513 1513 1514 1516 1518 1521
1530 1529 1529 1528 1527 1526 1525 1524 1523 1522 1522 1521 1520 1519 1519 1518 1517 1516 1516 1515 1515 1514 1513 1511 1510 1510 1510 1510 1509 1509 1508 1508 1508 1508 1507 1507 1507 1507 1507 1507 1508 1510 1513
1527 1526 1525 1525 1524 1523 1522 1521 1520 1519 1518 1517 1516 1515 1514 1514 1512 1512 1511 1510 1510 1509 1508 1507 1505 1505 1505 1505 1504 1503 1503 1502 1502 1502 1501 1501 1501 1501 1500 1501 1501 1503 1505
1523 1523 1522 1521 1520 1519 1518 1517 1516 1515 1514 1513 1512 1511 1510 1509 1508 1507 1506 1505 1505 1504 1503 1502 1501 1500 1500 1500 1499 1498 1497 1497 1496 1496 1496 1495 1495 1494 1494 1494 1494 1495 1496
1520 1519 1518 1517 1516 1515 1514 1512 1511 1510 1509 1508 1507 1506 1504 1503 1502 1501 1501 1500 1500 1499 1498 1497 1496 1495 1494 1494 1494 1493 1492 1491 1491 1491 1490 1490 1489 1488 1488 1487 1487 1488 1489
1516 1515 1514 1513 1512 1510 1509 1508 1507 1506 1505 1503 1502 1501 1499 1498 1496 1496 1495 1495 1494 1493 1492 1492 1491 1489 1489 1489 1488 1488 1487 1486 1485 1486 1485 1484 1484 1482 1482 1482 1481 1481 1482
1512 1511 1509 1508 1507 1506 1505 1503 1502 1501 1500 1499 1497 1496 1494 1492 1491 1490 1489 1489 1488 1488 1488 1487 1485 1484 1483 1483 1483 1482 1481 1480 1479 1479 1479 1477 1477 1476 1476 1475 1475 1475 1475
1507 1506 1505 1503 1502 1501 1500 1498 1497 1496 1495 1494 1492 1490 1489 1487 1486 1485 1484 1483 1482 1482 1481 1480 1479 1478 1477 1477 1477 1476 1475 1473 1472 1473 1474 1471 1470 1470 1470 1469 1468 1468 1469
1502 1501 1500 1498 1497 1496 1495 1494 1492 1491 1489 1488 1487 1485 1484 1482 1481 1480 1479 1477 1476 1475 1475 1474 1472 1471 1470 1470 1470 1469 1468 1467 1465 1465 1467 1466 1464 1464 1463 1462 1462 1462 1462
1497 1496 1495 1493 1492 1490 1490 1488 1487 1485 1484 1482 1481 1480 1479 1477 1476 1475 1473 1472 1470 1469 1468 1467 1465 1464 1463 1463 1463 1462 1461 1460 1459 1458 1459 1460 1459 1459 1457 1456 1456 1456 1456